This is the latest recevied weather packets stored in our database for station/object LX1CU-13. If no packets are shown the sender has not sent any weather packets the latest 1 day(s).
| Time | Temp. | Humidity | Pressure | Rain* | Wind** | Luminosity | Snow |
|---|---|---|---|---|---|---|---|
| 1777987712 | 13.89° C | 86% | 1004 hPa | 0 mm | 0 m/s | - | - |
| 1777987412 | 13.89° C | 86% | 1004.3 hPa | 0 mm | 0 m/s | - | - |
| 1777987112 | 13.89° C | 85% | 1004.2 hPa | 0 mm | 0 m/s | - | - |
| 1777986812 | 13.89° C | 85% | 1004.2 hPa | 0 mm | 0 m/s | - | - |
| 1777986512 | 13.33° C | 84% | 1004.3 hPa | 0 mm | 0 m/s | - | - |
| 1777986212 | 13.33° C | 84% | 1004.3 hPa | 0 mm | 0 m/s | - | - |
| 1777985912 | 13.33° C | 83% | 1004.3 hPa | 0 mm | 0 m/s | - | - |
| 1777985613 | 13.89° C | 82% | 1004.5 hPa | 0 mm | 0 m/s | - | - |
| 1777985312 | 13.89° C | 81% | 1004.2 hPa | 0 mm | 0 m/s | - | - |
| 1777985013 | 13.89° C | 79% | 1004.1 hPa | 0 mm | 0 m/s | - | - |
| 1777984713 | 13.89° C | 79% | 1004.1 hPa | 0 mm | 0 m/s | - | - |
| 1777984413 | 14.44° C | 77% | 1004 hPa | 0 mm | 0 m/s | - | - |
| 1777984113 | 15° C | 75% | 1004.1 hPa | 0 mm | 0 m/s | - | - |
| 1777983813 | 15.56° C | 72% | 1004.1 hPa | 0 mm | 0 m/s | - | - |
| 1777983513 | 16.67° C | 71% | 1003.8 hPa | 0 mm | 0 m/s | - | - |
| 1777983213 | 17.22° C | 69% | 1003.8 hPa | 0 mm | 0 m/s | - | - |
| 1777982913 | 17.78° C | 69% | 1004 hPa | 0 mm | 0 m/s | - | - |
| 1777982613 | 17.22° C | 69% | 1004.1 hPa | 0 mm | 0 m/s | - | - |
| 1777982313 | 17.22° C | 69% | 1004 hPa | 0 mm | 0 m/s | - | - |
| 1777982013 | 17.22° C | 68% | 1004.1 hPa | 0 mm | 0 m/s | - | - |
| 1777981713 | 17.78° C | 66% | 1004.1 hPa | 0 mm | 0 m/s | - | - |
| 1777981413 | 18.33° C | 66% | 1004.1 hPa | 0 mm | 0 m/s | - | - |
| 1777981113 | 18.89° C | 65% | 1004.2 hPa | 0 mm | 0 m/s | - | - |
| 1777980813 | 19.44° C | 64% | 1004.2 hPa | 0 mm | 0 m/s | - | - |
| 1777980513 | 19.44° C | 64% | 1004.2 hPa | 0 mm | 0 m/s | - | - |
* Rain latest hour (hover to see other rain measurements)
** Current wind speed in m/s (hover to see current wind gust speed)